Weather History for Beatrice, NE

Change the Weather History Date:

Wednesday, October 16, 2013

  Actual Average Record
Temperature  
Mean Temperature 46 °F -  
Max Temperature 56 °F 66 °F 85 °F (1950)
Min Temperature 37 °F 39 °F 24 °F (1966)
Degree Days  
Heating Degree Days 18    
Moisture  
Dew Point 36 °F    
Average Humidity 68    
Maximum Humidity 90    
Minimum Humidity 40    
Precipitation  
Precipitation 0.00 in - - ()
Sea Level Pressure  
Sea Level Pressure 30.05 in    
Wind  
Wind Speed 8 mph (WNW)    
Max Wind Speed 13 mph    
Max Gust Speed 16 mph    
Visibility 10 miles    
Events      
Averages and records for this station are not official NWS values.
T = Trace of Precipitation, MM = Missing Value Source: NWS Daily Summary

Daily Weather History Graph

Daily Weather History Graph

Search for Another Location

Airport:

Trip Planner

Search our weather history database for the weather conditions in past years. The results will help you decide how hot, cold, wet, or windy it might be!

Date:

Astronomy

Oct. 16, 2013 Rise Set
Actual Time 7:39 AM CDT 6:45 PM CDT
Civil Twilight 7:11 AM CDT 7:12 PM CDT
Nautical Twilight 6:40 AM CDT 7:44 PM CDT
Astronomical Twilight 6:08 AM CDT 8:15 PM CDT
Moon 5:25 PM CDT (10/16) 5:07 AM CDT (10/16)
Length of Visible Light 12h 00m
Length of Day
11h 06m
Waxing Gibbous, 94% of the Moon is Illuminated
Oct 16
Waxing Gibbous
Oct 18
Full
Oct 26
Last Quarter
Nov 3
New
Nov 9
First Quarter

Hourly Weather History & Observations

Time (CDT) Temp. Windchill Dew Point Humidity Pressure Visibility Wind Dir Wind Speed Gust Speed Precip Events Conditions
12:15 AM 45.0 °F 39.7 °F 38.7 °F 79% 30.11 in 10.0 mi NW 10.4 mph - N/A   Overcast
12:35 AM 45.0 °F 40.1 °F 38.7 °F 79% 30.11 in 10.0 mi WNW 9.2 mph - N/A   Overcast
12:55 AM 45.0 °F 40.6 °F 38.5 °F 78% 30.11 in 10.0 mi WNW 8.1 mph - N/A   Overcast
1:15 AM 44.8 °F 39.0 °F 38.5 °F 79% 30.11 in 10.0 mi WNW 11.5 mph - N/A   Overcast
1:35 AM 44.6 °F 39.7 °F 38.5 °F 79% 30.12 in 10.0 mi WNW 9.2 mph - N/A   Overcast
1:55 AM 44.8 °F 39.9 °F 38.3 °F 78% 30.11 in 10.0 mi WNW 9.2 mph - N/A   Overcast
2:15 AM 45.0 °F 39.7 °F 38.3 °F 77% 30.12 in 10.0 mi WNW 10.4 mph - N/A   Overcast
2:35 AM 45.0 °F 39.7 °F 38.3 °F 77% 30.12 in 10.0 mi WNW 10.4 mph - N/A   Overcast
2:55 AM 45.0 °F 40.1 °F 38.3 °F 77% 30.11 in 10.0 mi WNW 9.2 mph - N/A   Overcast
3:15 AM 44.8 °F 39.0 °F 38.1 °F 77% 30.11 in 10.0 mi WNW 11.5 mph - N/A   Overcast
3:35 AM 44.8 °F 39.4 °F 38.1 °F 77% 30.10 in 10.0 mi NW 10.4 mph - N/A   Overcast
3:55 AM 44.6 °F 38.8 °F 38.1 °F 78% 30.09 in 10.0 mi NW 11.5 mph - N/A   Overcast
4:15 AM 44.6 °F 39.7 °F 38.1 °F 78% 30.08 in 10.0 mi NW 9.2 mph - N/A   Overcast
4:35 AM 44.6 °F 39.2 °F 37.6 °F 76% 30.08 in 10.0 mi WNW 10.4 mph - N/A   Overcast
4:55 AM 44.2 °F 39.2 °F 37.8 °F 78% 30.09 in 10.0 mi WNW 9.2 mph - N/A   Overcast
5:15 AM 42.6 °F 37.8 °F 37.0 °F 81% 30.10 in 10.0 mi WNW 8.1 mph - N/A   Scattered Clouds
5:35 AM 41.7 °F 37.3 °F 36.7 °F 82% 30.10 in 10.0 mi WNW 6.9 mph - N/A   Clear
5:55 AM 41.0 °F 35.8 °F 36.5 °F 84% 30.10 in 10.0 mi West 8.1 mph - N/A   Clear
6:15 AM 40.3 °F 34.4 °F 36.3 °F 86% 30.10 in 10.0 mi West 9.2 mph - N/A   Clear
6:35 AM 39.7 °F 33.7 °F 35.8 °F 86% 30.10 in 10.0 mi West 9.2 mph - N/A   Clear
6:55 AM 39.0 °F 33.4 °F 35.6 °F 88% 30.10 in 10.0 mi WNW 8.1 mph - N/A   Clear
7:15 AM 38.3 °F 32.5 °F 35.2 °F 89% 30.09 in 10.0 mi West 8.1 mph - N/A   Clear
7:35 AM 37.6 °F 31.0 °F 34.9 °F 90% 30.10 in 10.0 mi WNW 9.2 mph - N/A   Clear
7:55 AM 37.6 °F 31.0 °F 34.9 °F 90% 30.10 in 10.0 mi WNW 9.2 mph - N/A   Clear
8:15 AM 38.1 °F 32.3 °F 35.1 °F 89% 30.11 in 10.0 mi WNW 8.1 mph - N/A   Clear
8:35 AM 39.2 °F 33.6 °F 35.2 °F 86% 30.11 in 10.0 mi WNW 8.1 mph - N/A   Clear
8:55 AM 40.1 °F 33.6 °F 35.6 °F 84% 30.11 in 10.0 mi WNW 10.4 mph - N/A   Clear
9:15 AM 41.9 °F 35.0 °F 36.5 °F 81% 30.11 in 10.0 mi WNW 12.7 mph - N/A   Clear
9:35 AM 43.0 °F 37.2 °F 36.7 °F 78% 30.11 in 10.0 mi NW 10.4 mph - N/A   Clear
9:55 AM 45.0 °F 39.7 °F 37.6 °F 75% 30.11 in 10.0 mi WNW 10.4 mph - N/A   Clear
10:15 AM 46.6 °F - 37.4 °F 70% 30.10 in 10.0 mi NW 10.4 mph - N/A   Clear
10:35 AM 48.2 °F - 37.6 °F 67% 30.10 in 10.0 mi NW 12.7 mph - N/A   Clear
10:55 AM 49.1 °F - 36.9 °F 63% 30.10 in 10.0 mi NW 10.4 mph 16.1 mph N/A   Clear
11:15 AM 49.8 °F - 36.3 °F 60% 30.10 in 10.0 mi NW 11.5 mph - N/A   Clear
11:35 AM 50.9 °F - 35.8 °F 56% 30.10 in 10.0 mi NW 10.4 mph - N/A   Clear
11:55 AM 51.3 °F - 35.4 °F 55% 30.09 in 10.0 mi NNW 10.4 mph - N/A   Clear
12:15 PM 52.2 °F - 34.7 °F 51% 30.09 in 10.0 mi NW 8.1 mph - N/A   Clear
12:35 PM 51.8 °F - 34.3 °F 51% 30.08 in 10.0 mi NW 10.4 mph - N/A   Clear
12:55 PM 52.7 °F - 31.6 °F 45% 30.07 in 10.0 mi NW 10.4 mph - N/A   Clear
1:15 PM 53.2 °F - 34.7 °F 49% 30.06 in 10.0 mi WNW 10.4 mph - N/A   Clear
1:35 PM 54.3 °F - 34.9 °F 48% 30.05 in 10.0 mi NW 9.2 mph - N/A   Clear
1:55 PM 54.5 °F - 32.9 °F 44% 30.04 in 10.0 mi West 3.5 mph - N/A   Clear
2:15 PM 54.9 °F - 32.7 °F 43% 30.03 in 10.0 mi WNW 9.2 mph - N/A   Clear
2:35 PM 55.9 °F - 33.1 °F 42% 30.02 in 10.0 mi NW 8.1 mph - N/A   Clear
2:55 PM 55.6 °F - 32.5 °F 42% 30.02 in 10.0 mi NW 5.8 mph - N/A   Clear
3:15 PM 55.9 °F - 32.7 °F 41% 30.02 in 10.0 mi West 3.5 mph - N/A   Clear
3:35 PM 56.5 °F - 33.1 °F 41% 30.02 in 10.0 mi NNW 3.5 mph - N/A   Clear
3:55 PM 56.5 °F - 33.8 °F 42% 30.00 in 10.0 mi West 4.6 mph - N/A   Clear
4:15 PM 56.7 °F - 33.8 °F 42% 29.99 in 10.0 mi West 3.5 mph - N/A   Clear
4:35 PM 56.5 °F - 33.1 °F 41% 29.99 in 10.0 mi WNW 6.9 mph - N/A   Clear
4:55 PM 56.3 °F - 32.7 °F 41% 29.98 in 10.0 mi West 3.5 mph - N/A   Clear
5:15 PM 56.1 °F - 32.2 °F 40% 29.98 in 10.0 mi Calm Calm - N/A   Clear
5:35 PM 55.9 °F - 32.2 °F 41% 29.98 in 10.0 mi NW 4.6 mph - N/A   Clear
5:55 PM 55.4 °F - 32.9 °F 43% 29.98 in 10.0 mi WNW 5.8 mph - N/A   Clear
6:15 PM 54.5 °F - 33.3 °F 45% 29.99 in 10.0 mi WNW 3.5 mph - N/A   Clear
6:35 PM 54.3 °F - 31.6 °F 42% 29.99 in 10.0 mi Calm Calm - N/A   Clear
6:55 PM 52.0 °F - 33.8 °F 50% 29.99 in 10.0 mi Calm Calm - N/A   Clear
7:15 PM 51.4 °F - 34.0 °F 51% 29.99 in 10.0 mi Calm Calm - N/A   Clear
7:35 PM 48.4 °F - 35.6 °F 61% 29.98 in 10.0 mi Calm Calm - N/A   Clear
7:55 PM 46.9 °F - 37.0 °F 68% 29.99 in 10.0 mi Calm Calm - N/A   Clear
8:15 PM 46.4 °F - 37.2 °F 70% 29.99 in 10.0 mi Calm Calm - N/A   Clear
8:35 PM 43.2 °F 40.5 °F 37.2 °F 80% 29.99 in 10.0 mi NE 4.6 mph - N/A   Clear
8:55 PM 43.7 °F 42.1 °F 35.8 °F 74% 29.99 in 10.0 mi ENE 3.5 mph - N/A   Clear
9:15 PM 42.8 °F 41.1 °F 35.6 °F 76% 29.99 in 10.0 mi ENE 3.5 mph - N/A   Clear
9:35 PM 41.5 °F - 35.4 °F 79% 29.99 in 10.0 mi Calm Calm - N/A   Clear
9:55 PM 42.4 °F - 36.0 °F 78% 29.99 in 10.0 mi Calm Calm - N/A   Clear
10:15 PM 41.7 °F - 35.6 °F 79% 29.99 in 10.0 mi Calm Calm - N/A   Clear
10:35 PM 40.6 °F - 35.4 °F 82% 29.99 in 10.0 mi Calm Calm - N/A   Clear
10:55 PM 39.7 °F - 34.9 °F 83% 29.99 in 10.0 mi Calm Calm - N/A   Scattered Clouds
11:15 PM 40.3 °F - 36.0 °F 85% 29.99 in 10.0 mi Calm Calm - N/A   Scattered Clouds
11:35 PM 39.2 °F 35.9 °F 35.2 °F 86% 29.98 in 10.0 mi South 4.6 mph - N/A   Clear
11:55 PM 38.8 °F - 35.6 °F 88% 29.97 in 10.0 mi Calm Calm - N/A   Scattered Clouds